User: anonymous   Login
Location: Musselshell
(46.5176°N, 108.0911°W)
Time: 09:43:24
(UTC+00:00)
Language:

XW-2A - Orbit

View from above orbital plane
View from above orbital plane
View from above satellite
View from above satellite

Ground track
Ground track

The orbit data is extracted from the following two-line orbital elements,

1 40903U 15049E   22178.11773756  .00018859  00000-0  29347-3 0  9991
2 40903  97.1791 236.6656 0011256  88.6659 326.0812 15.53878714380768
Epoch (UTC): 27 June 2022 02:49:32
Eccentricity: 0.0011256
inclination: 97.1791°
perigee height: 398 km
apogee height: 413 km
right ascension of ascending node: 236.6656°
argument of perigee: 88.6659°
revolutions per day: 15.53878714
mean anomaly at epoch: 326.0812°
orbit number at epoch: 38076

The dashed part of the orbit path shows where the satellite is in the earth's shadow,  

DLR